Weather History for Volkel, Netherlands

Change the Weather History Date:

Sunday, October 7, 2012

  Actual Average Record
Temperature  
Mean Temperature 46 °F -  
Max Temperature 59 °F 54 °F 68 °F (1997)
Min Temperature 33 °F 41 °F 33 °F (1996)
Degree Days  
Heating Degree Days 19    
Moisture  
Dew Point 39 °F    
Average Humidity 94    
Maximum Humidity 100    
Minimum Humidity 51    
Precipitation  
Precipitation 0.00 in - - ()
Sea Level Pressure  
Sea Level Pressure 30.06 in    
Wind  
Wind Speed 3 mph ()    
Max Wind Speed 7 mph    
Max Gust Speed -    
Visibility 3.6 miles    
Events Fog    
Averages and records for this station are not official NWS values.
T = Trace of Precipitation, MM = Missing Value Source: Averaged Metar Reports

Daily Weather History Graph

Daily Weather History Graph

Search for Another Location

Airport:

Trip Planner

Search our weather history database for the weather conditions in past years. The results will help you decide how hot, cold, wet, or windy it might be!

Date:

Astronomy

Oct. 07, 2012 Rise Set
Actual Time 7:48 AM CEST 7:00 PM CEST
Civil Twilight 7:14 AM CEST 7:33 PM CEST
Nautical Twilight 6:36 AM CEST 8:12 PM CEST
Astronomical Twilight 5:56 AM CEST 8:51 PM CEST
Moon 11:27 PM CEST (10/7) 2:45 PM CEST (10/7)
Length of Visible Light 12h 19m
Length of Day
11h 12m
Waning Gibbous, 58% of the Moon is Illuminated
Oct 7
Waning Gibbous
Oct 8
Last Quarter
Oct 15
New
Oct 22
First Quarter
Oct 29
Full

Hourly Weather History & Observations

Time (CEST) Temp. Windchill Dew Point Humidity Pressure Visibility Wind Dir Wind Speed Gust Speed Precip Events Conditions
12:08 AM 41.0 °F - 41.0 °F 100% 29.98 in 3.1 mi WNW 1.2 mph - N/A   Mist
12:12 AM 41.0 °F - 39.2 °F 93% 29.98 in 1.8 mi NW 1.2 mph - N/A   Mist
12:16 AM 39.2 °F - 39.2 °F 100% 29.98 in 3.7 mi NW 1.2 mph - N/A   Mist
12:25 AM 41.0 °F - 39.2 °F 93% 29.98 in 0.9 mi WNW 2.3 mph - N/A   Mist
12:32 AM 41.0 °F - 41.0 °F 100% 29.98 in - WNW 2.3 mph - N/A Fog Fog
12:37 AM 41.0 °F - 39.2 °F 93% 29.98 in 0.7 mi West 2.3 mph - N/A   Mist
12:41 AM 41.0 °F - 41.0 °F 100% 29.98 in 3.1 mi West 2.3 mph - N/A   Mist
12:47 AM 41.0 °F - 41.0 °F 100% 29.98 in 5.0 mi NW 1.2 mph - N/A   Mist
12:51 AM 41.0 °F - 39.2 °F 93% 29.98 in 3.7 mi NNW 2.3 mph - N/A   Mist
12:55 AM 39.2 °F - 39.2 °F 100% 29.98 in 1.1 mi NNW 2.3 mph - N/A   Mist
12:59 AM 39.2 °F - 39.2 °F 100% 29.98 in 3.1 mi NNW 2.3 mph - N/A   Mist
1:08 AM 39.2 °F - 39.2 °F 100% 29.98 in 2.2 mi NNW 2.3 mph - N/A   Mist
1:12 AM 39.2 °F - 39.2 °F 100% 29.98 in 0.6 mi NNW 2.3 mph - N/A   Mist
1:16 AM 39.2 °F - 39.2 °F 100% 29.98 in - NNW 2.3 mph - N/A   Mist
1:21 AM 39.2 °F - 39.2 °F 100% 29.98 in 2.2 mi NNW 2.3 mph - N/A   Mist
1:25 AM 41.0 °F - 41.0 °F 100% 29.98 in 4.3 mi NNW 2.3 mph - N/A   Mist
1:29 AM 39.2 °F - 39.2 °F 100% 29.98 in - NNW 2.3 mph - N/A   Mist
1:32 AM 39.2 °F - 39.2 °F 100% 29.98 in - NNW 2.3 mph - N/A Fog Fog
1:37 AM 41.0 °F - 41.0 °F 100% 29.98 in 3.7 mi NNW 2.3 mph - N/A   Mist
1:41 AM 39.2 °F - 39.2 °F 100% 29.98 in - NW 1.2 mph - N/A   Mist
1:46 AM 39.2 °F - 39.2 °F 100% 29.98 in - West 1.2 mph - N/A   Mist
1:55 AM 37.4 °F - 37.4 °F 100% 29.98 in 0.6 mi WSW 1.2 mph - N/A   Mist
1:59 AM 37.4 °F - 37.4 °F 100% 29.98 in 3.1 mi West 1.2 mph - N/A   Mist
2:03 AM 39.2 °F - 39.2 °F 100% 29.98 in 5.6 mi WNW 1.2 mph - N/A   Mist
2:16 AM 41.0 °F 39.0 °F 41.0 °F 100% 29.98 in 5.6 mi NNW 3.5 mph - N/A   Mist
2:25 AM 39.2 °F - 39.2 °F 100% 29.98 in 6.2 mi NW 2.3 mph - N/A   Unknown
2:30 AM 39.2 °F - 39.2 °F 100% 29.98 in 3.1 mi WNW 2.3 mph - N/A   Mist
2:33 AM 39.2 °F - 39.2 °F 100% 29.98 in 1.7 mi NW 2.3 mph - N/A   Mist
2:37 AM 39.2 °F - 39.2 °F 100% 29.98 in 3.7 mi NW 2.3 mph - N/A   Mist
2:49 AM 39.2 °F 37.0 °F 39.2 °F 100% 29.98 in 5.0 mi NW 3.5 mph - N/A   Mist
2:55 AM 39.2 °F 37.0 °F 39.2 °F 100% 29.98 in 4.3 mi NW 3.5 mph - N/A   Mist
3:03 AM 37.4 °F - 37.4 °F 100% 29.98 in 2.5 mi NW 2.3 mph - N/A   Mist
3:07 AM 39.2 °F - 39.2 °F 100% 29.98 in 0.8 mi NW 2.3 mph - N/A   Mist
3:11 AM 39.2 °F - 37.4 °F 93% 29.98 in 1.1 mi WNW 1.2 mph - N/A   Mist
3:12 AM 37.4 °F - 37.4 °F 100% 29.98 in 0.2 mi West 1.2 mph - N/A Fog Fog
3:25 AM 37.4 °F - 37.4 °F 100% 29.98 in 0.3 mi WSW 2.3 mph - N/A Fog Fog
3:55 AM 37.4 °F 34.9 °F 37.4 °F 100% 30.01 in 0.2 mi SW 3.5 mph - N/A Fog Fog
3:59 AM 37.4 °F 34.9 °F 37.4 °F 100% 29.98 in 0.2 mi SW 3.5 mph - N/A Fog Fog
4:25 AM 37.4 °F 33.8 °F 37.4 °F 100% 30.01 in 0.3 mi SW 4.6 mph - N/A Fog Fog
4:33 AM 39.2 °F 37.0 °F 39.2 °F 100% 30.01 in 0.6 mi WSW 3.5 mph - N/A   Mist
4:34 AM 37.4 °F 34.9 °F 37.4 °F 100% 30.01 in 1.0 mi WSW 3.5 mph - N/A   Mist
4:50 AM 35.6 °F - 35.6 °F 100% 30.01 in 1.6 mi SW 1.2 mph - N/A   Mist
4:55 AM 35.6 °F - 35.6 °F 100% 30.01 in 3.7 mi WSW 2.3 mph - N/A   Mist
4:59 AM 35.6 °F - 35.6 °F 100% 30.01 in 6.2 mi WSW 2.3 mph - N/A   Unknown
5:03 AM 35.6 °F - 35.6 °F 100% 30.01 in 2.2 mi SW 2.3 mph - N/A   Mist
5:07 AM 35.6 °F - 33.8 °F 93% 30.01 in - SW 2.3 mph - N/A   Mist
5:11 AM 33.8 °F - 33.8 °F 100% 30.01 in - WSW 2.3 mph - N/A   Mist
5:14 AM 33.8 °F 30.8 °F 33.8 °F 100% 30.01 in 0.7 mi WSW 3.5 mph - N/A   Mist
5:25 AM 33.8 °F - 33.8 °F 100% 30.01 in 1.1 mi WSW 2.3 mph - N/A   Mist
5:29 AM 35.6 °F - 33.8 °F 93% 30.01 in 0.7 mi West 2.3 mph - N/A   Mist
5:36 AM 35.6 °F - 35.6 °F 100% 30.01 in - West 2.3 mph - N/A Fog Fog
5:48 AM 33.8 °F 30.8 °F 33.8 °F 100% 30.01 in 0.5 mi West 3.5 mph - N/A Fog Fog
5:55 AM 35.6 °F 32.8 °F 35.6 °F 100% 30.01 in 3.1 mi WNW 3.5 mph - N/A   Mist
5:57 AM 35.6 °F 32.8 °F 35.6 °F 100% 30.01 in - WNW 3.5 mph - N/A   Mist
6:03 AM 35.6 °F 32.8 °F 35.6 °F 100% 30.01 in 3.7 mi NW 3.5 mph - N/A   Mist
6:07 AM 37.4 °F 34.9 °F 37.4 °F 100% 30.01 in 5.0 mi WNW 3.5 mph - N/A   Mist
6:18 AM 35.6 °F - 35.6 °F 100% 30.01 in 3.7 mi West 2.3 mph - N/A   Partly Cloudy
6:25 AM 37.4 °F 34.9 °F 37.4 °F 100% 30.01 in 1.1 mi West 3.5 mph - N/A   Partly Cloudy
6:29 AM 37.4 °F 34.9 °F 37.4 °F 100% 30.01 in 0.6 mi West 3.5 mph - N/A   Mist
6:33 AM 37.4 °F 34.9 °F 37.4 °F 100% 30.01 in - West 3.5 mph - N/A Fog Fog
6:37 AM 37.4 °F 34.9 °F 37.4 °F 100% 30.01 in 0.8 mi West 3.5 mph - N/A   Partly Cloudy
6:49 AM 35.6 °F - 35.6 °F 100% 30.01 in 1.2 mi West 2.3 mph - N/A   Mist
6:55 AM 35.6 °F - 35.6 °F 100% 30.01 in 1.2 mi West 2.3 mph - N/A   Mist
6:59 AM 33.8 °F - 33.8 °F 100% 30.01 in 0.5 mi West 2.3 mph - N/A Fog Fog
7:05 AM 37.4 °F 34.9 °F 37.4 °F 100% 30.01 in 1.1 mi West 3.5 mph - N/A   Mist
7:18 AM 35.6 °F 31.7 °F 35.6 °F 100% 30.04 in - West 4.6 mph - N/A   Mist
7:25 AM 35.6 °F 31.7 °F 35.6 °F 100% 30.04 in 1.6 mi West 4.6 mph - N/A   Mist
7:34 AM 35.6 °F 31.7 °F 35.6 °F 100% 30.04 in 0.7 mi West 4.6 mph - N/A   Mist
7:38 AM 37.4 °F 33.8 °F 37.4 °F 100% 30.04 in - West 4.6 mph - N/A   Mist
7:39 AM 37.4 °F 33.8 °F 37.4 °F 100% 30.04 in - West 4.6 mph - N/A   Mist
7:46 AM 39.2 °F 37.0 °F 39.2 °F 100% 30.04 in - West 3.5 mph - N/A   Mist
7:50 AM 37.4 °F 34.9 °F 37.4 °F 100% 30.04 in 2.2 mi West 3.5 mph - N/A   Mist
7:55 AM 37.4 °F 34.9 °F 37.4 °F 100% 30.04 in 1.8 mi West 3.5 mph - N/A   Mist
8:04 AM 37.4 °F 34.9 °F 37.4 °F 100% 30.04 in - West 3.5 mph - N/A   Mist
8:08 AM 37.4 °F 34.9 °F 37.4 °F 100% 30.04 in - West 3.5 mph - N/A   Mist
8:12 AM 37.4 °F 34.9 °F 37.4 °F 100% 30.04 in - West 3.5 mph - N/A   Mist
8:16 AM 37.4 °F 33.8 °F 37.4 °F 100% 30.04 in - West 4.6 mph - N/A   Mist
8:20 AM 39.2 °F 35.9 °F 39.2 °F 100% 30.04 in - West 4.6 mph - N/A   Mist
8:25 AM 39.2 °F 35.9 °F 37.4 °F 93% 30.04 in 2.5 mi West 4.6 mph - N/A   Partly Cloudy
8:29 AM 37.4 °F 33.8 °F 37.4 °F 100% 30.04 in 3.1 mi West 4.6 mph - N/A   Scattered Clouds
8:33 AM 37.4 °F 33.8 °F 37.4 °F 100% 30.04 in - West 4.6 mph - N/A   Scattered Clouds
8:37 AM 39.2 °F 35.9 °F 39.2 °F 100% 30.04 in 3.1 mi West 4.6 mph - N/A   Scattered Clouds
8:41 AM 41.0 °F 39.0 °F 41.0 °F 100% 30.06 in - West 3.5 mph - N/A   Mostly Cloudy
8:46 AM 41.0 °F 39.0 °F 41.0 °F 100% 30.06 in 3.1 mi West 3.5 mph - N/A   Mostly Cloudy
8:50 AM 42.8 °F 40.1 °F 42.8 °F 100% 30.06 in - West 4.6 mph - N/A   Mostly Cloudy
8:55 AM 42.8 °F 40.1 °F 42.8 °F 100% 30.06 in 3.1 mi West 4.6 mph - N/A   Mostly Cloudy
9:04 AM 44.6 °F 43.1 °F 44.6 °F 100% 30.06 in 5.0 mi West 3.5 mph - N/A   Scattered Clouds
9:17 AM 44.6 °F - 44.6 °F 100% 30.06 in 6.2 mi West 2.3 mph - N/A   Mostly Cloudy
9:25 AM 44.6 °F - 44.6 °F 100% 30.06 in 6.2 mi West 2.3 mph - N/A   Overcast
9:55 AM 48.2 °F - 46.4 °F 93% 30.09 in 6.2 mi West 2.3 mph - N/A   Mostly Cloudy
10:25 AM 50.0 °F - 48.2 °F 94% 30.09 in 6.2 mi NW 3.5 mph - N/A   Unknown
10:55 AM 51.8 °F - 46.4 °F 82% 30.09 in 6.2 mi NNW 4.6 mph - N/A   Unknown
11:25 AM 53.6 °F - 46.4 °F 77% 30.12 in 6.2 mi North 5.8 mph - N/A   Unknown
11:55 AM 55.4 °F - 42.8 °F 63% 30.12 in 6.2 mi NNW 5.8 mph - N/A   Unknown
12:25 PM 57.2 °F - 42.8 °F 59% 30.12 in 6.2 mi North 6.9 mph - N/A   Partly Cloudy
12:55 PM 57.2 °F - 42.8 °F 59% 30.12 in 6.2 mi NNW 6.9 mph - N/A   Partly Cloudy
1:25 PM 57.2 °F - 44.6 °F 63% 30.15 in 6.2 mi NW 5.8 mph - N/A   Mostly Cloudy
1:55 PM 55.4 °F - 42.8 °F 63% 30.15 in 6.2 mi NNW 6.9 mph - N/A   Mostly Cloudy
2:25 PM 59.0 °F - 41.0 °F 51% 30.15 in 6.2 mi NW 6.9 mph - N/A   Scattered Clouds
2:55 PM 57.2 °F - 41.0 °F 55% 30.15 in 6.2 mi WNW 6.9 mph - N/A   Scattered Clouds
3:25 PM 57.2 °F - 42.8 °F 59% 30.15 in 6.2 mi NW 5.8 mph - N/A   Overcast
3:55 PM 57.2 °F - 42.8 °F 59% 30.18 in 6.2 mi WNW 5.8 mph - N/A   Overcast
4:25 PM 57.2 °F - 42.8 °F 59% 30.18 in 6.2 mi WNW 5.8 mph - N/A   Mostly Cloudy
4:55 PM 59.0 °F - 42.8 °F 55% 30.18 in 6.2 mi West 6.9 mph - N/A   Mostly Cloudy
5:25 PM 57.2 °F - 41.0 °F 55% 30.18 in 6.2 mi NW 5.8 mph - N/A   Mostly Cloudy
5:55 PM 55.4 °F - 44.6 °F 67% 30.18 in 6.2 mi North 5.8 mph - N/A   Overcast
6:25 PM 53.6 °F - 44.6 °F 72% 30.18 in 6.2 mi NW 2.3 mph - N/A   Scattered Clouds
6:55 PM 51.8 °F - 44.6 °F 76% 30.18 in 6.2 mi WNW 2.3 mph - N/A   Unknown
7:18 PM 48.2 °F - 44.6 °F 87% 30.18 in - WNW 2.3 mph - N/A   Mist
7:25 PM 48.2 °F - 44.6 °F 87% 30.18 in 6.2 mi WNW 2.3 mph - N/A   Unknown
7:35 PM 46.4 °F 45.2 °F 44.6 °F 93% 30.21 in 6.2 mi WNW 3.5 mph - N/A   Unknown
7:55 PM 46.4 °F 44.3 °F 44.6 °F 93% 30.21 in 6.2 mi WNW 4.6 mph - N/A   Unknown
8:25 PM 44.6 °F 43.1 °F 42.8 °F 93% 30.21 in 6.2 mi WNW 3.5 mph - N/A   Unknown
8:55 PM 44.6 °F 43.1 °F 44.6 °F 100% 30.21 in 6.2 mi WNW 3.5 mph - N/A   Unknown
9:25 PM 42.8 °F - 41.0 °F 93% 30.21 in 6.2 mi WNW 2.3 mph - N/A   Unknown
9:55 PM 39.2 °F - 39.2 °F 100% 30.21 in 6.2 mi West 2.3 mph - N/A   Partly Cloudy
10:25 PM 41.0 °F 39.0 °F 41.0 °F 100% 30.24 in 6.2 mi SW 3.5 mph - N/A   Unknown
10:55 PM 41.0 °F - 41.0 °F 100% 30.21 in 6.2 mi NE 1.2 mph - N/A   Partly Cloudy
11:25 PM 41.0 °F - 39.2 °F 93% 30.21 in 6.2 mi SSW 1.2 mph - N/A   Unknown
11:35 PM 41.0 °F - 41.0 °F 100% 30.24 in 4.3 mi SW 1.2 mph - N/A   Mist
11:40 PM 41.0 °F - 41.0 °F 100% 30.24 in 5.0 mi SW 2.3 mph - N/A   Mist
11:42 PM 41.0 °F - 41.0 °F 100% 30.24 in 3.1 mi SW 2.3 mph - N/A   Mist
11:49 PM 41.0 °F - 41.0 °F 100% 30.24 in - SW 2.3 mph - N/A   Partly Cloudy
11:55 PM 41.0 °F - 39.2 °F 93% 30.24 in 3.1 mi WSW 1.2 mph - N/A   Mostly Cloudy
11:59 PM 41.0 °F - 39.2 °F 93% 30.24 in 6.2 mi WSW 1.2 mph - N/A   Overcast